Hourly Data Report for May 16, 2022

TORONTO CITY
ONTARIO
Current Station Operator: ECCC - MSC

43°40'00.000" N
79°24'00.000" W
112.50 m
6158355
71508
XTO

Download Data

Hourly Data (May 2022)
Hourly Data Report for May 16, 2022
TIME
LST
Temp Definition
°C
Dew Point Definition
°C
Rel Hum Definition
%
Precip. Amount Definition
mm

Wind Dir Definition
10's deg

Wind Spd Definition
km/h
Visibility Definition
km
Stn Press Definition
kPa
Hmdx Definition


Wind Chill Definition


Weather Definition


00:00 22.4 13.7 58 0.0       99.34 26   LegendNANA
01:00 20.7 14.0 66 0.0       99.32     LegendNANA
02:00 19.8 13.9 69 0.0       99.25     LegendNANA
03:00 19.4 12.7 65 0.2       99.14     LegendNANA
04:00 18.0 11.9 68 0.0       99.13     LegendNANA
05:00 16.6 10.6 68 0.0       99.24     LegendNANA
06:00 15.7 9.6 67 0.0       99.24     LegendNANA
07:00 16.0 9.2 64 0.0       99.21     LegendNANA
08:00 14.6 8.9 69 0.0       99.19     LegendNANA
09:00 15.6 7.9 60 0.0       99.13     LegendNANA
10:00 14.0 11.0 82 0.8       99.06     LegendNANA
11:00 13.8 11.0 83 0.1       99.13     LegendNANA
12:00 12.7 10.4 86 0.6       99.07     LegendNANA
13:00 12.3 10.2 87 1.4       99.08     LegendNANA
14:00 13.0 10.5 84 0.4       99.10     LegendNANA
15:00 15.4 9.2 66 0.0       99.10     LegendNANA
16:00 16.9 9.4 61 0.0       99.12     LegendNANA
17:00 17.5 8.8 57 0.0       99.17     LegendNANA
18:00 17.4 7.3 51 0.0       99.19     LegendNANA
19:00 16.7 6.4 50 0.0       99.24     LegendNANA
20:00 16.1 6.8 54 0.0       99.28     LegendNANA
21:00 15.2 7.7 61 0.0       99.32     LegendNANA
22:00 14.5 9.0 69 0.0       99.33     LegendNANA
23:00 14.5 8.9 69 0.0       99.32     LegendNANA

Notes on Data Quality.

Legend

  • E = Estimated
  • M = Missing
  • NA = Not Available*
  • [empty] = Indicates an unobserved value
Date modified: